Temp
11 11 11 11 11 11 11 11 11 11 11 10 11 11 10 10 10 10 11 11 11 11 11 11 11 11 11 11 10 10 10 10 10 11 11 11 11 10 10 11 10 10
11 11 11 11 11 11 11 11 11 11 11 11 11 11 11 11 10 10 11 11 11 11 11 11 11 11 11 11 11 10 10 10 10 10 10 11 11 10 10 11 11 11
11 11 11 11 11 11 11 11 11 11 11 11 11 11 11 11 11 11 11 11 11 11 11 11 11 11 11 11 11 10 10 10 10 10 10 11 11 10 10 10 11 11
11 11 11 11 11 11 11 11 11 11 11 11 11 11 11 11 11 11 11 11 11 11 11 11 11 11 11 11 11 10 10 10 10 10 10 11 11 10 10 10 10 11
11 11 11 11 11 11 11 11 11 11 11 11 11 11 11 11 11 11 11 11 11 11 11 11 11 11 11 11 11 11 11 10 10 11 11 11 11 11 11 11 11 11
11 11 11 11 11 11 11 11 11 11 11 11 11 11 11 11 11 11 11 11 11 11 11 11 11 11 11 11 11 11 11 11 11 11 11 11 11 11 11 11 11 11
10 10 10 11 11 11 11 11 11 11 11 11 11 11 11 11 11 11 11 11 11 11 11 11 11 11 11 11 11 11 11 11 11 11 11 11 11 11 11 11 11 11
10 10 10 10 11 11 11 11 11 11 11 11 11 11 11 11 11 11 11 11 11 11 11 11 11 11 11 11 11 11 11 11 11 11 11 11 11 11 11 11 11 11
10 10 10 10 11 11 11 11 11 11 11 11 11 11 11 11 11 11 11 11 11 11 11 11 11 11 11 11 11 11 11 11 11 11 11 11 11 11 11 11 11 11
10 10 10 10 11 11 11 11 11 11 11 11 11 11 11 11 11 11 11 11 11 11 11 11 11 11 11 11 11 11 11 11 11 11 11 11 11 11 11 11 11 11
10 10 10 10 11 11 11 11 11 11 11 11 11 11 11 11 11 11 11 11 11 11 11 11 11 11 11 11 11 11 11 11 11 11 11 11 11 11 11 11 11 11
10 10 10 11 10 10 11 11 11 11 11 11 11 11 11 11 11 11 11 11 11 11 11 11 11 11 11 11 11 11 11 11 11 11 11 11 11 11 11 11 11 11
10 10 10 10 10 10 10 11 11 11 11 11 11 11 11 11 11 11 11 11 11 11 11 11 11 11 11 11 11 11 11 11 11 11 11 11 11 11 11 11 12 12
9 10 10 10 10 10 10 10 10 10 11 11 11 11 11 11 11 11 11 11 11 11 11 11 11 11 11 11 11 11 11 11 11 11 11 11 11 11 11 11 11 12
9 9 10 10 10 11 10 10 10 10 11 10 10 10 11 11 11 11 11 11 11 11 11 11 11 11 11 11 10 10 11 11 11 11 11 11 11 11 11 11 11 11
9 10 10 10 10 10 10 9 10 10 11 11 10 10 10 11 11 11 11 11 11 11 11 11 11 11 11 11 10 10 10 10 11 11 11 11 11 11 11 11 11 11
10 10 10 10 10 10 10 10 10 10 10 11 10 10 10 10 11 11 10 11 11 11 11 11 11 11 11 11 11 10 10 10 10 10 10 11 11 11 11 11 11 11
10 10 10 10 10 10 10 10 10 10 10 10 10 10 10 10 11 11 11 11 11 11 11 11 11 11 11 11 11 11 11 10 10 10 10 10 10 11 11 11 11 11
10 10 10 10 10 10 10 10 10 10 10 10 10 10 10 10 10 11 11 11 12 12 12 12 12 12 12 11 11 11 11 11 11 11 10 10 10 10 11 11 11 11
10 10 10 10 10 10 10 10 10 10 10 10 10 10 10 10 10 10 10 11 11 12 12 12 12 12 12 12 12 11 11 11 11 11 11 11 11 11 11 11 11 11
10 10 9 10 10 10 10 10 10 10 10 11 10 10 10 10 10 10 10 10 10 10 11 12 12 12 12 12 12 12 12 11 11 11 11 11 11 11 11 11 11 11
10 10 10 10 10 10 10 10 10 10 10 10 10 10 10 10 10 10 11 11 10 10 10 11 12 12 12 11 11 12 12 12 12 11 11 11 11 11 11 11 11 11
9 9 9 10 10 10 10 10 10 10 10 10 10 10 10 10 11 11 11 11 11 11 11 11 11 12 11 11 11 11 11 12 12 12 11 11 11 11 11 11 11 11
9 9 10 10 10 9 9 10 10 10 10 10 10 10 10 11 11 11 11 12 12 12 11 11 11 11 11 11 11 11 11 11 11 11 11 11 11 11 11 11 11 11
9 9 9 10 9 9 9 9 10 10 10 10 10 10 10 10 11 11 11 12 12 12 12 11 11 11 11 11 11 11 11 11 11 11 11 11 11 11 11 11 11 11
9 9 9 9 9 9 9 9 10 10 10 10 10 10 10 10 10 10 11 11 12 12 11 11 11 11 11 10 10 10 10 11 11 11 11 11 11 11 11 11 12 12
Height
3225 3226 3227 3228 3229 3230 3231 3233 3233 3234 3235 3236 3236 3237 3238 3239 3239 3240 3241 3242 3243 3243 3244 3245 3245 3246 3246 3247 3247 3248 3249 3250 3250 3251 3252 3252 3253 3254 3254 3255 3256 3257
3224 3226 3227 3228 3229 3230 3231 3232 3233 3234 3235 3235 3236 3237 3238 3238 3239 3240 3241 3242 3242 3243 3244 3245 3246 3246 3246 3247 3247 3248 3249 3249 3250 3251 3251 3252 3253 3254 3254 3255 3256 3257
3224 3225 3226 3227 3228 3229 3230 3231 3232 3234 3234 3235 3236 3237 3237 3238 3239 3240 3241 3242 3242 3243 3244 3245 3246 3247 3247 3247 3247 3248 3249 3250 3250 3250 3251 3252 3252 3254 3254 3255 3256 3257
3223 3224 3226 3227 3228 3229 3229 3230 3231 3233 3234 3235 3236 3236 3237 3238 3238 3239 3240 3242 3242 3243 3244 3245 3246 3247 3247 3247 3248 3248 3249 3250 3250 3250 3251 3251 3252 3253 3254 3254 3255 3256
3222 3223 3225 3226 3227 3228 3229 3230 3231 3232 3233 3234 3235 3236 3237 3237 3238 3239 3240 3241 3242 3243 3244 3244 3245 3246 3247 3247 3248 3249 3249 3250 3250 3250 3251 3252 3252 3253 3254 3255 3256 3256
3221 3223 3224 3225 3226 3227 3229 3230 3230 3231 3232 3233 3235 3235 3236 3237 3238 3238 3240 3241 3242 3243 3244 3244 3245 3246 3247 3247 3248 3249 3249 3250 3250 3250 3251 3252 3253 3253 3254 3255 3255 3256
3220 3221 3223 3224 3226 3227 3228 3229 3230 3231 3231 3232 3234 3235 3236 3236 3237 3238 3239 3240 3241 3242 3243 3244 3245 3245 3246 3247 3248 3248 3249 3250 3250 3251 3251 3252 3253 3253 3254 3254 3255 3256
3220 3221 3222 3223 3225 3226 3227 3228 3229 3230 3231 3232 3232 3234 3235 3236 3237 3238 3238 3239 3240 3241 3242 3243 3244 3245 3246 3246 3247 3248 3248 3249 3250 3251 3251 3252 3253 3253 3254 3254 3255 3255
3218 3220 3220 3221 3223 3224 3225 3226 3228 3229 3230 3231 3232 3233 3234 3235 3236 3237 3238 3239 3240 3240 3241 3242 3244 3244 3245 3246 3247 3247 3248 3249 3249 3250 3251 3252 3252 3253 3254 3254 3255 3255
3216 3218 3219 3220 3221 3223 3224 3225 3226 3227 3228 3230 3231 3232 3233 3234 3235 3236 3237 3238 3239 3240 3241 3242 3243 3244 3245 3245 3246 3247 3247 3248 3249 3250 3250 3251 3252 3253 3253 3254 3254 3255
3213 3215 3217 3218 3219 3220 3221 3223 3224 3225 3227 3228 3229 3230 3232 3233 3234 3235 3236 3237 3238 3239 3240 3241 3242 3243 3244 3245 3245 3246 3246 3247 3248 3249 3250 3250 3251 3252 3252 3253 3253 3254
3210 3212 3214 3214 3217 3219 3220 3221 3223 3224 3225 3226 3228 3229 3230 3231 3233 3234 3235 3236 3237 3238 3239 3240 3241 3242 3242 3243 3244 3245 3245 3246 3247 3248 3248 3249 3250 3251 3251 3252 3252 3253
3206 3207 3208 3209 3212 3216 3217 3219 3221 3222 3224 3225 3226 3227 3229 3230 3231 3232 3234 3235 3236 3237 3238 3239 3240 3240 3241 3242 3243 3244 3244 3245 3245 3246 3247 3248 3248 3249 3250 3250 3251 3252
3200 3200 3201 3203 3207 3211 3214 3217 3219 3220 3222 3223 3224 3226 3227 3228 3229 3230 3232 3233 3234 3235 3236 3237 3238 3239 3240 3240 3241 3242 3243 3243 3244 3245 3246 3246 3247 3248 3248 3249 3249 3250
3194 3194 3197 3199 3201 3203 3206 3210 3214 3217 3219 3220 3222 3224 3225 3227 3228 3228 3229 3230 3232 3233 3234 3235 3236 3237 3238 3239 3240 3241 3241 3242 3242 3243 3244 3245 3245 3246 3247 3247 3248 3248
3192 3192 3195 3198 3200 3201 3203 3206 3210 3213 3216 3218 3220 3221 3223 3225 3226 3226 3227 3227 3229 3230 3232 3233 3233 3234 3235 3237 3238 3239 3240 3240 3241 3241 3242 3243 3243 3244 3245 3245 3246 3247
3192 3194 3197 3199 3200 3202 3205 3208 3210 3211 3214 3216 3217 3218 3220 3222 3223 3224 3225 3225 3226 3227 3229 3230 3231 3232 3233 3234 3236 3237 3238 3239 3239 3240 3240 3241 3241 3242 3242 3243 3244 3245
3194 3196 3197 3196 3198 3202 3206 3208 3210 3211 3213 3215 3216 3217 3218 3219 3220 3221 3221 3222 3223 3224 3225 3227 3228 3230 3231 3232 3233 3235 3236 3237 3237 3237 3238 3238 3239 3240 3240 3241 3242 3242
3195 3195 3195 3196 3200 3204 3207 3208 3209 3210 3212 3213 3216 3217 3218 3218 3219 3219 3220 3220 3221 3221 3222 3223 3225 3227 3228 3229 3231 3233 3234 3235 3235 3235 3236 3236 3236 3237 3238 3239 3239 3240
3193 3193 3194 3198 3200 3202 3203 3204 3205 3206 3208 3210 3212 3214 3215 3216 3217 3217 3218 3220 3221 3221 3221 3221 3223 3224 3226 3227 3228 3230 3232 3233 3233 3233 3233 3234 3234 3234 3235 3236 3236 3237
3190 3191 3192 3195 3197 3198 3199 3202 3204 3206 3208 3208 3209 3210 3212 3213 3214 3215 3216 3217 3219 3220 3220 3220 3221 3222 3223 3224 3225 3227 3229 3230 3231 3231 3231 3231 3231 3232 3232 3233 3233 3234
3187 3188 3189 3191 3194 3196 3198 3201 3203 3205 3206 3206 3206 3207 3209 3210 3211 3212 3213 3214 3215 3216 3216 3217 3218 3219 3220 3220 3222 3223 3225 3226 3227 3228 3228 3229 3229 3229 3230 3230 3231 3231
3184 3185 3187 3190 3192 3194 3195 3198 3200 3201 3202 3203 3204 3205 3206 3207 3208 3209 3210 3210 3211 3212 3212 3213 3214 3216 3218 3218 3219 3220 3221 3222 3223 3224 3225 3226 3226 3227 3227 3228 3228 3229
3182 3183 3186 3188 3189 3190 3191 3193 3196 3197 3198 3199 3201 3202 3203 3204 3205 3205 3206 3206 3207 3207 3208 3209 3210 3213 3214 3215 3216 3217 3217 3218 3219 3220 3221 3222 3222 3223 3224 3224 3225 3225
3180 3181 3183 3184 3186 3187 3188 3190 3193 3194 3196 3197 3198 3199 3200 3201 3202 3203 3203 3203 3204 3204 3204 3205 3206 3208 3211 3212 3213 3214 3214 3215 3215 3215 3216 3217 3218 3219 3220 3220 3220 3221
3179 3180 3181 3182 3183 3185 3186 3188 3191 3192 3194 3195 3196 3197 3197 3197 3198 3199 3200 3200 3201 3200 3201 3202 3203 3205 3206 3206 3206 3207 3208 3209 3210 3211 3212 3213 3214 3214 3215 3215 3216 3217
Wind_Speed
18 17 16 16 15 14 14 14 14 13 12 11 11 10 10 9 8 7 7 6 6 5 5 4 4 4 4 5 6 6 6 7 8 8 7 8 8 8 7 8 8 8
18 17 17 16 15 14 15 15 14 14 13 12 12 11 10 10 9 8 7 7 7 6 6 5 5 5 5 5 5 6 6 6 8 9 8 8 8 8 7 7 8 8
17 17 17 16 15 15 15 16 16 15 14 13 12 11 10 10 9 8 7 7 7 7 7 6 5 6 6 6 6 6 6 7 8 8 9 9 8 8 8 7 7 8
17 16 16 16 15 15 16 17 17 16 15 15 13 12 11 10 10 9 8 8 8 8 7 7 6 6 7 6 6 6 6 7 8 8 8 9 8 9 8 7 7 7
17 17 17 16 16 16 17 18 18 17 16 15 14 14 13 11 11 10 9 9 8 8 7 7 6 6 7 6 6 6 6 7 7 7 7 8 8 8 8 8 8 7
18 17 17 17 16 16 16 17 17 17 17 16 15 15 14 13 11 10 9 9 9 9 8 7 7 7 7 7 7 6 6 7 7 8 7 7 8 8 8 8 8 8
19 18 18 18 17 16 16 16 17 17 17 17 17 16 15 14 13 12 10 10 10 10 9 8 8 7 7 7 7 7 7 7 7 7 8 7 7 8 8 8 8 8
20 19 18 18 18 17 17 16 17 17 17 18 18 17 16 15 14 14 13 11 11 10 10 9 9 9 8 8 7 7 7 7 7 8 8 8 8 8 8 7 7 8
22 21 19 18 18 18 17 17 17 17 18 18 18 18 18 17 16 15 15 14 13 12 11 11 10 10 10 9 8 8 8 8 9 9 9 9 9 9 9 8 7 8
24 22 21 19 18 18 18 18 18 17 18 18 18 18 19 19 18 17 16 16 15 14 13 12 12 11 11 10 9 9 9 9 9 9 10 10 10 10 10 9 8 8
26 25 23 21 20 19 19 19 19 19 18 18 19 19 20 20 20 19 18 17 16 15 14 13 13 12 11 11 10 10 10 10 10 10 10 10 11 10 10 10 10 10
26 26 24 22 21 21 20 19 19 20 19 19 19 19 20 21 20 20 20 19 18 17 16 15 15 14 14 13 12 12 12 11 11 11 11 11 11 11 11 11 10 10
29 29 26 24 23 23 22 20 19 20 20 19 19 19 20 21 20 20 20 19 19 18 18 18 17 17 17 16 15 14 14 13 13 12 12 12 12 12 12 12 12 12
30 29 27 26 25 25 24 23 21 20 19 18 18 19 20 20 20 20 20 20 20 19 20 20 20 20 20 19 18 17 17 16 16 15 15 14 14 13 13 13 13 13
28 28 27 27 28 29 29 27 24 22 21 18 16 17 19 19 20 21 21 21 20 20 21 22 22 22 22 21 20 20 20 19 18 18 17 17 17 16 16 16 15 15
27 27 27 27 28 30 30 28 26 25 23 20 18 17 18 18 19 21 22 22 21 20 21 22 23 24 24 23 22 22 22 21 21 20 20 20 20 19 19 18 18 17
26 25 26 27 28 29 28 26 26 26 25 24 23 21 19 19 20 21 22 22 22 21 21 22 24 24 25 24 23 23 23 23 23 23 22 22 22 22 21 21 20 20
25 24 26 29 29 28 27 27 28 27 27 27 27 25 23 22 21 21 21 21 21 22 22 21 22 22 24 24 24 23 24 24 25 25 25 24 24 24 23 23 22 22
26 26 28 29 28 25 25 27 29 29 29 30 30 27 25 25 25 23 23 22 22 22 22 21 21 21 22 23 23 22 21 23 24 25 26 27 26 26 25 25 24 23
30 29 28 27 26 26 27 29 30 30 31 32 31 30 28 28 28 27 25 25 25 24 23 22 21 21 22 23 23 21 19 20 21 24 26 27 28 28 27 27 26 26
32 31 30 28 27 28 29 29 29 29 30 30 30 31 31 30 30 30 28 27 27 27 28 27 24 22 22 24 23 22 20 20 20 22 24 26 27 28 28 28 28 27
33 34 33 31 29 29 28 28 27 28 30 31 31 32 33 33 33 32 31 30 29 29 31 31 28 24 24 25 24 23 22 21 21 21 23 25 26 27 27 28 27 27
31 32 31 31 31 31 30 28 27 27 30 32 34 34 34 34 33 32 31 31 31 31 31 31 30 27 26 26 26 25 25 24 22 22 22 24 25 26 27 27 27 26
24 24 26 29 32 32 30 28 28 28 30 32 34 35 35 34 32 31 29 29 30 31 31 30 29 29 29 28 28 28 29 28 26 25 24 24 25 26 27 27 27 26
15 17 20 26 29 29 29 29 29 30 31 32 34 34 34 34 32 32 31 29 29 30 30 30 29 29 29 30 30 30 30 31 31 31 29 27 26 27 27 28 28 27
10 11 13 17 21 24 26 27 29 31 31 32 33 33 33 33 33 32 32 31 30 31 31 31 31 31 31 31 31 32 31 31 32 33 32 31 30 30 30 29 28 28
Wind_Direction
221 222 221 223 225 221 217 217 213 206 204 203 198 196 196 193 190 188 181 175 173 169 170 180 182 176 173 170 165 173 183 180 174 175 179 180 176 180 176 165 175 182
222 225 224 224 225 224 220 219 219 213 207 205 204 203 201 197 196 197 192 181 179 178 174 180 184 186 194 186 173 175 179 179 175 172 178 180 173 179 185 174 181 186
222 224 226 226 224 223 221 219 221 218 212 207 209 211 207 203 202 205 206 195 189 187 181 183 187 189 197 198 187 181 178 181 179 169 173 178 171 177 186 179 183 189
221 222 225 228 226 223 221 220 220 221 219 213 211 213 211 210 209 209 213 212 205 199 187 185 191 193 198 200 190 186 185 185 183 175 173 177 176 179 183 178 183 194
219 221 223 227 228 226 223 222 220 220 222 220 216 215 215 215 216 213 215 219 219 216 201 190 193 197 202 203 193 190 193 189 189 185 177 180 186 186 183 182 185 195
217 218 223 226 228 230 229 227 225 223 223 223 221 221 220 220 221 218 217 222 226 227 219 205 200 201 204 207 202 199 202 197 195 193 185 185 191 192 191 191 192 197
216 215 221 226 228 231 232 231 230 228 225 224 224 224 225 225 225 224 221 224 226 227 228 224 217 212 210 211 209 207 212 212 205 200 198 198 197 200 202 198 196 202
219 216 217 222 227 230 232 233 233 234 232 229 227 227 228 229 229 229 227 227 228 227 230 233 232 228 223 219 215 213 218 223 221 214 211 211 209 210 214 208 202 206
223 221 218 219 224 228 232 235 235 234 235 236 235 231 230 230 231 233 232 231 231 231 232 235 238 239 236 228 221 220 223 226 229 229 225 222 221 220 221 219 214 212
223 221 219 218 222 225 229 234 235 234 233 235 238 236 234 233 232 234 235 234 233 234 235 238 241 244 245 240 230 225 228 229 231 234 234 232 231 231 230 229 227 224
222 220 218 218 223 226 226 230 234 235 233 232 235 237 237 236 234 236 238 237 237 238 238 240 244 246 247 246 242 237 234 233 233 237 239 238 236 237 238 237 237 236
220 221 218 217 223 229 229 231 235 237 236 233 232 236 240 240 238 237 241 242 241 241 241 242 243 246 247 247 247 247 246 243 240 239 239 240 241 242 242 243 242 242
217 218 217 214 217 225 231 233 236 239 241 239 236 235 239 244 244 240 241 243 244 243 244 244 244 244 246 247 248 251 252 252 250 246 243 242 244 246 244 244 245 245
219 217 217 215 215 221 229 232 234 238 241 242 242 240 240 243 248 248 245 244 244 245 244 246 246 246 246 247 248 252 254 255 254 253 251 249 248 250 250 247 246 246
223 220 217 217 216 218 221 221 222 229 233 232 235 242 244 242 244 250 251 247 245 246 246 247 247 247 248 248 249 252 255 257 258 256 257 256 255 255 255 254 254 254
226 224 221 222 224 223 221 217 215 223 231 230 228 233 242 244 242 244 250 252 249 246 246 249 251 251 251 250 250 252 255 257 258 258 258 259 259 259 258 259 261 262
232 230 227 228 231 231 229 223 219 223 228 229 227 226 231 239 239 238 244 251 253 253 250 249 253 256 256 255 253 252 254 256 258 259 259 258 259 260 261 261 263 265
237 236 232 231 231 233 233 231 228 228 229 229 229 228 230 236 237 236 239 243 248 254 256 255 254 257 260 262 260 256 255 256 257 258 258 258 258 259 261 262 263 265
238 239 238 236 236 237 239 237 234 232 233 234 235 234 237 242 245 246 247 248 249 251 255 259 260 261 263 265 267 264 260 259 259 259 259 259 259 259 259 260 261 262
241 240 241 240 238 239 239 236 234 231 232 234 235 234 236 242 247 250 252 255 258 259 259 260 261 263 266 269 270 269 266 264 264 263 262 261 262 262 261 261 261 261
243 242 243 241 238 238 239 240 241 240 240 240 238 236 236 239 243 246 249 250 254 259 262 262 260 260 263 267 271 271 268 265 264 263 263 263 264 265 266 267 267 266
245 243 242 240 240 241 241 242 246 248 247 244 242 241 242 242 242 244 246 249 251 254 256 258 259 258 258 259 262 266 268 266 262 260 262 264 267 269 271 272 273 274
249 248 247 245 245 245 242 239 241 247 249 245 243 244 246 246 247 246 245 247 252 254 254 254 254 255 257 258 258 260 263 264 263 261 259 261 265 269 271 273 274 274
258 258 254 251 249 248 246 244 242 246 250 249 246 246 247 250 252 251 250 249 252 255 256 255 254 252 253 257 259 258 259 260 262 262 260 259 260 263 267 269 271 271
267 265 257 251 250 251 252 252 250 252 254 254 252 250 250 254 257 258 258 258 257 258 258 258 256 252 251 254 257 259 259 258 259 259 259 259 259 261 263 264 266 267
270 272 265 257 255 254 254 255 256 258 259 259 258 256 254 256 258 261 263 262 260 260 260 259 258 254 250 250 252 254 254 254 255 256 257 259 259 261 262 262 263 264